Volver al catálogo

STARLINK-36715

ActivoComunicacionesSSO
NORAD 67716·PAYLOAD·🇺🇸 United States

Lanzado Feb 7, 2026 desde Vandenberg Space Force Base

Loading…

Próximos Pases (próximas 24 horas)

TLE

ActualizadoSource: CelesTrak SupGP

Época: Sep 15, 2026, 04:00 UTC

1 67716C 26025Z   26258.16715278 -.00011479  00000+0 -35630-3 0  2583
2 67716  97.2854   8.0800 0001075  97.3365 276.3283 15.33449663    12

Sigue STARLINK-36715 en tiempo real con AllMySat

Download on the App Store